Location: Laupheim
(48.2265°N, 9.8829°E)
Time: 18:57:11
(UTC+01:00)

ISS - Pass Details

Date: 17 November 2017
Orbit: 402 x 407 km, 51.6° (Epoch: 19 November)

Event Time Altitude Azimuth Distance (km) Brightness Sun altitude
Exits shadow 04:48:26 15° 134° (SE) 1,194 -1.0 -26.8°
Drops below altitude 10° 04:49:05 10° 132° (SE) 1,450 -0.5 -26.7°
Sets 04:51:11 0° 127° (SE) 2,306 0.8 -26.3°
